NORTHERN QUEENS  -  Air Quality Alert Air Quality Alert        SOUTHERN QUEENS  -  Air Quality Alert Air Quality Alert      

Active alerts

Northern Queens
  Details for Northern Queens Air Quality Alert
Southern Queens
  Details for Southern Queens Air Quality Alert


WXM80 ListenWXM80 Stop

You find our weather info also at:

UK Metoffice

WeatherCloud

Weather Underground

Northeastern Weather Network

AWEKAS

Citizen Weather Observer Program (CWOP)

HAMweather, WeatherForYou, PWS Weather


Weather Underground History page Text

Daily Summary for October 26, 2017 Units:  Metric    English   Both
« Previous Day
Next Day »
Daily Weekly Monthly Yearly Custom
  High: Low: Average:
Temperature: 14.8 °C 11.1 °C 13.6 °C
Dew Point: 13.6 °C 4.8 °C 8.8 °C
Humidity: 94 % 62 % 73 %
Wind Speed: 14.8 km/h 0 km/h 6 km/h
Wind Gust: 27.8 km/h - -
Wind:- - SW
Pressure: 1011.4 hPa 1001.2 hPa -
Precipitation: 0.51 mm    
Historical Graphs
 
 
Tabular Data for October 26, 2017
Time Temperature Dew Point Pressure Wind Wind Speed Wind Gust Humidity Rainfall Rate (Hourly)
00:01 14.5 °C 13.6 °C 1003.9 hPa West 4.7 km/h 13 km/h 94 % 0 mm
00:06 14.4 °C 13.3 °C 1004.3 hPa NW 2.6 km/h 9.3 km/h 93 % 0 mm
00:11 14.4 °C 13.1 °C 1004.3 hPa NW 0.2 km/h 7.4 km/h 92 % 0 mm
00:16 14.3 °C 12.3 °C 1003.9 hPa NW 3.9 km/h 9.3 km/h 88 % 0 mm
00:21 14.3 °C 11.6 °C 1003.6 hPa North 5 km/h 7.4 km/h 84 % 0 mm
00:26 14.3 °C 11.1 °C 1003.6 hPa NW 3.2 km/h 9.3 km/h 81 % 0 mm
00:31 14.4 °C 10.6 °C 1003.9 hPa NNW 2.4 km/h 9.3 km/h 78 % 0 mm
00:36 14.4 °C 10.7 °C 1004.6 hPa WNW 7.6 km/h 9.3 km/h 78 % 0 mm
00:41 14.5 °C 10.5 °C 1003.9 hPa NW 2.3 km/h 12.9 km/h 77 % 0 mm
00:46 14.6 °C 10.6 °C 1003.9 hPa SW 5.3 km/h 7.4 km/h 77 % 0 mm
00:51 14.7 °C 10.5 °C 1004.6 hPa West 4.8 km/h 11.3 km/h 76 % 0 mm
00:56 14.7 °C 10.6 °C 1003.9 hPa WNW 1.8 km/h 3.7 km/h 76 % 0 mm
01:01 14.8 °C 10.8 °C 1003.9 hPa North 3.9 km/h 5.6 km/h 77 % 0 mm
01:06 14.8 °C 10.4 °C 1004.3 hPa WNW 6.6 km/h 8 km/h 75 % 0 mm
01:11 14.8 °C 10.2 °C 1004.3 hPa WNW 8 km/h 13 km/h 74 % 0 mm
01:22 14.8 °C 9.6 °C 1004.6 hPa North 1.3 km/h 9.3 km/h 71 % 0 mm
01:27 14.8 °C 9.6 °C 1005 hPa WNW 10.1 km/h 18.5 km/h 71 % 0 mm
01:32 14.8 °C 9.2 °C 1005 hPa NNW 8.7 km/h 14.8 km/h 69 % 0 mm
01:37 14.8 °C 9.4 °C 1004.3 hPa NW 7.2 km/h 13 km/h 70 % 0 mm
01:42 14.8 °C 9.2 °C 1004.3 hPa NNE 2.3 km/h 9.7 km/h 69 % 0 mm
01:47 14.8 °C 9.2 °C 1003.9 hPa WNW 6.3 km/h 13 km/h 69 % 0 mm
01:52 14.7 °C 9.1 °C 1004.3 hPa NNE 6.9 km/h 14.8 km/h 69 % 0 mm
01:57 14.7 °C 9.1 °C 1004.3 hPa West 6.6 km/h 14.8 km/h 69 % 0 mm
02:02 14.7 °C 9.3 °C 1004.3 hPa NW 7.2 km/h 14.8 km/h 70 % 0 mm
02:07 14.7 °C 9.1 °C 1003.9 hPa WNW 3.5 km/h 9.3 km/h 69 % 0 mm
02:12 14.6 °C 9.2 °C 1003.3 hPa NNW 0.6 km/h 3.7 km/h 70 % 0 mm
02:17 14.6 °C 8.9 °C 1002.9 hPa NW 2.9 km/h 11.1 km/h 69 % 0 mm
02:22 14.5 °C 8.9 °C 1002.6 hPa NNE 8.4 km/h 13 km/h 69 % 0 mm
02:27 14.5 °C 8.9 °C 1002.3 hPa North 7.2 km/h 11.1 km/h 69 % 0 mm
02:32 14.4 °C 9.4 °C 1001.9 hPa NW 10.9 km/h 16.7 km/h 72 % 0 mm
02:37 14.4 °C 9.4 °C 1001.2 hPa NE 10.6 km/h 17.7 km/h 72 % 0 mm
02:42 14.5 °C 9.7 °C 1001.6 hPa NNE 10.3 km/h 18.5 km/h 73 % 0 mm
02:48 14.6 °C 10 °C 1002.3 hPa North 8.2 km/h 16.7 km/h 74 % 0 mm
02:53 14.6 °C 10.2 °C 1002.6 hPa NNW 5.3 km/h 9.3 km/h 75 % 0 mm
02:58 14.6 °C 10.2 °C 1002.6 hPa NNW 6.4 km/h 12.9 km/h 75 % 0 mm
03:03 14.6 °C 10.2 °C 1002.9 hPa North 6.8 km/h 13 km/h 75 % 0 mm
03:08 14.6 °C 10.4 °C 1002.6 hPa NNW 10.5 km/h 14.8 km/h 76 % 0 mm
03:13 14.6 °C 10.6 °C 1002.6 hPa NNW 9.3 km/h 13 km/h 77 % 0 mm
03:18 14.6 °C 10.6 °C 1002.9 hPa North 9.2 km/h 16.7 km/h 77 % 0 mm
03:23 14.6 °C 10.8 °C 1002.6 hPa NW 6.1 km/h 14.8 km/h 78 % 0 mm
03:28 14.6 °C 10.6 °C 1002.9 hPa NE 4.2 km/h 12.9 km/h 77 % 0 mm
03:33 14.6 °C 10.8 °C 1003.6 hPa NNW 6 km/h 13 km/h 78 % 0 mm
03:38 14.6 °C 10.6 °C 1003.6 hPa NNE 7.1 km/h 11.3 km/h 77 % 0 mm
03:43 14.6 °C 10.6 °C 1002.9 hPa WNW 1.3 km/h 9.3 km/h 77 % 0 mm
03:48 14.6 °C 10.6 °C 1002.9 hPa NNE 8.4 km/h 16.7 km/h 77 % 0 mm
03:53 14.5 °C 10.3 °C 1003.3 hPa NNW 3.5 km/h 9.3 km/h 76 % 0 mm
03:58 14.5 °C 10.3 °C 1002.6 hPa NW 9.5 km/h 19.3 km/h 76 % 0 mm
04:03 14.5 °C 10.3 °C 1002.9 hPa North 4.7 km/h 7.4 km/h 76 % 0 mm
04:09 14.5 °C 10.3 °C 1003.3 hPa NNE 1.3 km/h 7.4 km/h 76 % 0 mm
04:14 14.4 °C 9.9 °C 1002.9 hPa NW 7.9 km/h 18.5 km/h 74 % 0 mm
04:19 14.4 °C 9.9 °C 1002.3 hPa NNE 10.8 km/h 18.5 km/h 74 % 0 mm
04:24 14.4 °C 9.9 °C 1002.6 hPa North 13.2 km/h 19.3 km/h 74 % 0 mm
04:29 14.4 °C 9.8 °C 1002.6 hPa NNE 8.2 km/h 18.5 km/h 74 % 0 mm
04:34 14.4 °C 9.8 °C 1002.6 hPa NNE 8.4 km/h 16.7 km/h 74 % 0 mm
04:39 14.3 °C 9.6 °C 1002.9 hPa North 10.1 km/h 13 km/h 73 % 0 mm
04:44 14.3 °C 9.6 °C 1002.9 hPa NNE 6.6 km/h 11.1 km/h 73 % 0 mm
04:49 14.3 °C 9.5 °C 1003.3 hPa NW 4.3 km/h 13 km/h 73 % 0 mm
04:54 14.3 °C 9.8 °C 1003.3 hPa North 3.9 km/h 13 km/h 74 % 0 mm
04:59 14.3 °C 9.5 °C 1002.9 hPa North 7.1 km/h 12.9 km/h 73 % 0 mm
05:04 14.3 °C 9.5 °C 1002.6 hPa NNE 7.7 km/h 16.7 km/h 73 % 0 mm
05:09 14.3 °C 9.5 °C 1002.3 hPa NNW 9.5 km/h 18.5 km/h 73 % 0 mm
05:14 14.3 °C 9.5 °C 1002.3 hPa NNE 11.7 km/h 19.3 km/h 73 % 0 mm
05:19 14.3 °C 9.5 °C 1002.3 hPa NE 9 km/h 20.9 km/h 73 % 0 mm
05:25 14.3 °C 9.3 °C 1002.6 hPa NNW 12.4 km/h 19.3 km/h 72 % 0 mm
05:30 14.3 °C 9.7 °C 1002.6 hPa NNE 9 km/h 18.5 km/h 74 % 0 mm
05:35 14.3 °C 9.7 °C 1002.6 hPa NNE 6.9 km/h 18.5 km/h 74 % 0 mm
05:40 14.3 °C 9.9 °C 1003.3 hPa NNE 8.9 km/h 16.7 km/h 75 % 0 mm
05:45 14.3 °C 9.9 °C 1002.9 hPa NNE 6.3 km/h 13 km/h 75 % 0 mm
05:50 14.3 °C 9.7 °C 1003.3 hPa ENE 10.6 km/h 18.5 km/h 74 % 0 mm
05:55 14.2 °C 9.7 °C 1003.3 hPa NNW 3.1 km/h 13 km/h 74 % 0 mm
06:00 14.2 °C 9.7 °C 1003.3 hPa NNE 10.5 km/h 14.8 km/h 74 % 0 mm
06:05 14.2 °C 9.6 °C 1003.3 hPa NNE 10 km/h 18.5 km/h 74 % 0 mm
06:10 14.2 °C 9.6 °C 1003.3 hPa North 10.8 km/h 14.8 km/h 74 % 0 mm
06:15 14.2 °C 9.6 °C 1002.9 hPa North 11.3 km/h 22.2 km/h 74 % 0 mm
06:20 14.1 °C 9.7 °C 1002.6 hPa NNE 4.7 km/h 8 km/h 75 % 0 mm
06:25 14.1 °C 9.5 °C 1002.9 hPa NW 5.8 km/h 11.1 km/h 74 % 0 mm
06:30 14.1 °C 9.5 °C 1002.9 hPa NNW 5.5 km/h 18.5 km/h 74 % 0 mm
06:35 14 °C 9.4 °C 1002.9 hPa North 6.6 km/h 11.1 km/h 74 % 0 mm
06:40 14 °C 9.6 °C 1002.6 hPa NW 10 km/h 13 km/h 75 % 0 mm
06:45 14 °C 9.4 °C 1002.6 hPa NW 9 km/h 18.5 km/h 74 % 0 mm
06:51 14 °C 9.6 °C 1002.6 hPa NNE 4.8 km/h 12.9 km/h 75 % 0 mm
06:56 14 °C 9.6 °C 1002.6 hPa NNW 3.2 km/h 12.9 km/h 75 % 0 mm
07:01 13.9 °C 9.4 °C 1002.3 hPa NNE 8 km/h 18.5 km/h 74 % 0 mm
07:06 13.9 °C 9.3 °C 1002.3 hPa North 9.7 km/h 19.3 km/h 74 % 0 mm
07:11 13.8 °C 9.3 °C 1002.3 hPa North 4.8 km/h 16.1 km/h 74 % 0 mm
07:16 13.8 °C 9.5 °C 1002.6 hPa North 9.7 km/h 24.1 km/h 75 % 0 mm
07:21 13.8 °C 9.6 °C 1002.6 hPa NNE 8 km/h 19.3 km/h 76 % 0 mm
07:26 13.8 °C 9.4 °C 1002.9 hPa North 4.8 km/h 16.1 km/h 75 % 0 mm
07:31 13.8 °C 9.6 °C 1002.6 hPa NNW 3.2 km/h 11.3 km/h 76 % 0 mm
07:36 13.7 °C 9.6 °C 1002.6 hPa NNW 8 km/h 19.3 km/h 76 % 0 mm
07:41 13.7 °C 9.4 °C 1002.6 hPa NE 4.3 km/h 14.8 km/h 75 % 0 mm
07:46 13.7 °C 9.6 °C 1002.6 hPa North 3.2 km/h 19.3 km/h 76 % 0 mm
07:50 13.7 °C 9.6 °C 1002.6 hPa NNE 5.8 km/h 13 km/h 76 % 0 mm
07:56 13.7 °C 9.6 °C 1002.3 hPa NNW 9.7 km/h 19.3 km/h 76 % 0 mm
08:01 13.7 °C 9.5 °C 1002.6 hPa NNE 5.1 km/h 11.1 km/h 76 % 0 mm
08:06 13.7 °C 9.7 °C 1002.6 hPa NNW 7.1 km/h 16.7 km/h 77 % 0 mm
08:11 13.7 °C 9.5 °C 1002.3 hPa NNE 8 km/h 14.8 km/h 76 % 0 mm
08:16 13.6 °C 9.4 °C 1002.6 hPa NNW 5.3 km/h 16.7 km/h 76 % 0 mm
08:21 13.6 °C 9.4 °C 1002.6 hPa NNE 8.5 km/h 18.5 km/h 76 % 0 mm
08:26 13.6 °C 9.6 °C 1002.6 hPa North 7.1 km/h 16.7 km/h 77 % 0 mm
08:31 13.6 °C 9.6 °C 1002.9 hPa WNW 4.5 km/h 9.7 km/h 77 % 0 mm
08:36 13.6 °C 9.4 °C 1002.9 hPa NNW 9.3 km/h 13 km/h 76 % 0 mm
08:41 13.6 °C 9.6 °C 1002.9 hPa NNE 2.3 km/h 13 km/h 77 % 0 mm
08:46 13.6 °C 9.6 °C 1002.9 hPa NNW 11.4 km/h 16.7 km/h 77 % 0 mm
08:51 13.5 °C 9.3 °C 1002.9 hPa ENE 6.4 km/h 16.7 km/h 76 % 0 mm
08:56 13.5 °C 9.3 °C 1003.3 hPa NNW 1.8 km/h 5.6 km/h 76 % 0 mm
09:01 13.5 °C 9.6 °C 1003.3 hPa NW 3.2 km/h 7.4 km/h 77 % 0 mm
09:06 13.5 °C 9.6 °C 1003.3 hPa NE 3.5 km/h 14.8 km/h 77 % 0 mm
09:11 13.5 °C 9.3 °C 1003.3 hPa NNW 6 km/h 14.8 km/h 76 % 0 mm
09:17 13.6 °C 9.4 °C 1003.3 hPa NNW 3.9 km/h 18.5 km/h 76 % 0 mm
09:22 13.6 °C 9.4 °C 1003.3 hPa WSW 5.5 km/h 11.3 km/h 76 % 0 mm
09:27 13.6 °C 9.6 °C 1003.3 hPa NNW 4.8 km/h 9.3 km/h 77 % 0 mm
09:32 13.6 °C 9.4 °C 1003.3 hPa WNW 2.6 km/h 9.3 km/h 76 % 0 mm
09:37 13.6 °C 9.3 °C 1003.3 hPa North 10.5 km/h 16.7 km/h 75 % 0 mm
09:42 13.7 °C 9.5 °C 1003.3 hPa NNE 3.7 km/h 9.3 km/h 76 % 0 mm
09:47 13.7 °C 9.1 °C 1003.3 hPa NW 6.4 km/h 13 km/h 74 % 0 mm
09:52 13.7 °C 9.6 °C 1003.3 hPa West 5.8 km/h 14.8 km/h 76 % 0 mm
09:57 13.8 °C 9.2 °C 1003.3 hPa NW 2.6 km/h 9.3 km/h 74 % 0 mm
10:02 13.8 °C 9.2 °C 1003.6 hPa North 6.9 km/h 9.7 km/h 74 % 0 mm
10:07 13.8 °C 9.4 °C 1003.3 hPa NNE 2.7 km/h 14.8 km/h 75 % 0 mm
10:12 13.8 °C 9.2 °C 1003.3 hPa North 10.9 km/h 14.8 km/h 74 % 0 mm
10:17 13.8 °C 9.2 °C 1003.3 hPa North 5.8 km/h 11.1 km/h 74 % 0 mm
10:22 13.8 °C 9.2 °C 1003.6 hPa NW 2.3 km/h 14.8 km/h 74 % 0 mm
10:27 13.8 °C 9.4 °C 1003.3 hPa North 6.3 km/h 9.7 km/h 75 % 0 mm
10:33 13.7 °C 8.9 °C 1003.3 hPa NNE 10.6 km/h 18.5 km/h 73 % 0 mm
10:38 13.7 °C 9.2 °C 1003.3 hPa North 10 km/h 16.7 km/h 74 % 0 mm
10:43 13.7 °C 8.9 °C 1003.6 hPa NNW 8.4 km/h 13 km/h 73 % 0 mm
10:48 13.8 °C 9 °C 1003.6 hPa NNE 5 km/h 16.7 km/h 73 % 0 mm
10:53 13.8 °C 9.2 °C 1003.3 hPa NNW 6.6 km/h 16.7 km/h 74 % 0 mm
10:58 13.8 °C 9.3 °C 1003.6 hPa NW 3.4 km/h 5.6 km/h 74 % 0 mm
11:03 13.9 °C 9.1 °C 1003.3 hPa NNW 4.3 km/h 11.1 km/h 73 % 0 mm
11:08 13.9 °C 9.2 °C 1003.3 hPa North 4 km/h 14.8 km/h 73 % 0 mm
11:13 14.1 °C 9.5 °C 1003.3 hPa NW 4.5 km/h 11.3 km/h 74 % 0 mm
11:18 14.2 °C 9.2 °C 1003.6 hPa NNW 6.9 km/h 18.5 km/h 72 % 0 mm
11:20 14.2 °C 9.2 °C 1003.6 hPa NNW 7.6 km/h 14.5 km/h 72 % 0 mm
11:25 14.2 °C 9.2 °C 1003.6 hPa WNW 6 km/h 11.1 km/h 72 % 0 mm
11:30 14.2 °C 9.2 °C 1003.6 hPa SW 6.3 km/h 9.3 km/h 72 % 0 mm
11:40 14.2 °C 9.2 °C 1003.9 hPa WNW 1 km/h 13 km/h 72 % 0 mm
11:45 14.2 °C 9.2 °C 1003.6 hPa NW 10 km/h 14.8 km/h 72 % 0 mm
11:51 14.2 °C 9.4 °C 1003.9 hPa North 4.7 km/h 8 km/h 73 % 0 mm
11:56 14.1 °C 9.3 °C 1003.9 hPa NNW 3.2 km/h 16.1 km/h 73 % 0 mm
12:01 14.1 °C 9.3 °C 1003.6 hPa North 3.7 km/h 16.7 km/h 73 % 0 mm
12:06 14 °C 9.1 °C 1003.6 hPa NNW 2.1 km/h 8 km/h 72 % 0 mm
12:11 14 °C 9.2 °C 1003.6 hPa NNE 0.3 km/h 3.7 km/h 73 % 0 mm
12:16 13.9 °C 9.2 °C 1003.6 hPa NW 4.2 km/h 7.4 km/h 73 % 0 mm
12:21 13.9 °C 9.2 °C 1003.6 hPa North 6.4 km/h 9.3 km/h 73 % 0 mm
12:26 13.9 °C 8.8 °C 1003.3 hPa WNW 5.8 km/h 16.7 km/h 71 % 0 mm
12:31 13.9 °C 8.7 °C 1003.6 hPa NNW 3.2 km/h 11.1 km/h 71 % 0 mm
12:36 13.8 °C 8.9 °C 1003.6 hPa North 3.5 km/h 13 km/h 72 % 0 mm
12:41 13.8 °C 8.7 °C 1003.6 hPa North 6.4 km/h 16.7 km/h 71 % 0 mm
12:46 13.8 °C 8.6 °C 1003.6 hPa NE 4.8 km/h 13 km/h 71 % 0 mm
12:51 13.8 °C 8.8 °C 1003.6 hPa WNW 6.3 km/h 17.7 km/h 72 % 0 mm
12:56 13.8 °C 8.6 °C 1003.6 hPa NNE 10.3 km/h 13 km/h 71 % 0 mm
13:01 13.8 °C 8.4 °C 1003.6 hPa NW 11.3 km/h 14.5 km/h 70 % 0 mm
13:06 13.8 °C 8.7 °C 1003.3 hPa North 6.9 km/h 14.8 km/h 71 % 0 mm
13:11 13.8 °C 8.7 °C 1003.3 hPa NNW 1.9 km/h 13 km/h 71 % 0 mm
13:17 13.8 °C 8.9 °C 1003.6 hPa NW 6.4 km/h 13 km/h 72 % 0 mm
13:22 13.8 °C 8.7 °C 1003.3 hPa NW 6.8 km/h 14.8 km/h 71 % 0 mm
13:27 13.8 °C 8.4 °C 1003.3 hPa WNW 3.4 km/h 16.7 km/h 70 % 0 mm
13:32 13.8 °C 8.8 °C 1003.3 hPa NNW 3.4 km/h 13 km/h 72 % 0 mm
13:37 13.8 °C 8.6 °C 1003.3 hPa NNE 8.9 km/h 18.5 km/h 71 % 0 mm
13:41 13.7 °C 8.6 °C 1003.3 hPa North 3.7 km/h 13 km/h 71 % 0 mm
13:46 13.7 °C 8.5 °C 1003.3 hPa North 4.3 km/h 11.1 km/h 71 % 0 mm
13:52 13.7 °C 8.5 °C 1003.3 hPa NW 8.9 km/h 14.5 km/h 71 % 0 mm
13:57 13.6 °C 8.4 °C 1003.3 hPa NNE 5 km/h 5.6 km/h 71 % 0 mm
14:02 13.6 °C 8.4 °C 1003.3 hPa North 2.3 km/h 9.3 km/h 71 % 0 mm
14:07 13.6 °C 8.6 °C 1002.9 hPa North 2.6 km/h 9.3 km/h 72 % 0 mm
14:12 13.6 °C 8.8 °C 1002.9 hPa NW 6.6 km/h 13 km/h 73 % 0 mm
14:17 13.6 °C 9 °C 1003.3 hPa WNW 3.9 km/h 8 km/h 74 % 0 mm
14:22 13.6 °C 9.2 °C 1003.3 hPa NW 6.4 km/h 16.7 km/h 75 % 0 mm
14:27 13.6 °C 9.6 °C 1003.3 hPa WNW 2.4 km/h 7.4 km/h 77 % 0 mm
14:32 13.5 °C 9.7 °C 1003.3 hPa NW 4.8 km/h 9.3 km/h 78 % 0.25 mm
14:37 13.4 °C 9.8 °C 1003.3 hPa NNW 0.6 km/h 3.7 km/h 79 % 0.25 mm
14:42 13.3 °C 9.8 °C 1003.3 hPa NW 6.4 km/h 7.4 km/h 79 % 0.25 mm
14:52 13.1 °C 9.7 °C 1003.6 hPa North 5.6 km/h 11.1 km/h 80 % 0.25 mm
14:57 13.1 °C 9.9 °C 1003.3 hPa NW 3.9 km/h 11.1 km/h 81 % 0.25 mm
15:02 13.1 °C 9.9 °C 1003.6 hPa NNW 5.3 km/h 18.5 km/h 81 % 0.51 mm
15:08 13.1 °C 9.7 °C 1003.6 hPa NW 1.1 km/h 13 km/h 80 % 0.51 mm
15:13 13.2 °C 10 °C 1003.6 hPa West 3.5 km/h 7.4 km/h 81 % 0.51 mm
15:18 13.3 °C 9.9 °C 1003.6 hPa WNW 5.6 km/h 16.7 km/h 80 % 0.51 mm
15:23 13.4 °C 9.6 °C 1003.9 hPa NW 5.1 km/h 9.3 km/h 78 % 0.51 mm
15:28 13.6 °C 9.6 °C 1003.9 hPa NNW 5 km/h 13 km/h 77 % 0.51 mm
15:33 13.7 °C 9.3 °C 1003.9 hPa WNW 6.8 km/h 11.3 km/h 75 % 0.25 mm
15:38 13.8 °C 9.6 °C 1003.9 hPa NNW 4.8 km/h 9.3 km/h 76 % 0.25 mm
15:43 13.8 °C 9.3 °C 1003.9 hPa NW 4.5 km/h 13 km/h 74 % 0.25 mm
15:48 13.9 °C 9.7 °C 1004.3 hPa West 0.6 km/h 5.6 km/h 76 % 0.25 mm
15:53 14 °C 10.1 °C 1004.3 hPa SW 4.5 km/h 7.4 km/h 77 % 0.25 mm
15:58 14 °C 10.1 °C 1004.6 hPa NW 7.2 km/h 13 km/h 77 % 0.25 mm
16:03 14 °C 10.1 °C 1004.6 hPa SW 7.4 km/h 18.5 km/h 77 % 0 mm
16:08 13.9 °C 9.8 °C 1004.6 hPa West 3.4 km/h 9.3 km/h 76 % 0 mm
16:13 13.9 °C 9.8 °C 1005 hPa SSW 6.4 km/h 14.8 km/h 76 % 0 mm
16:18 13.9 °C 9.6 °C 1005 hPa SW 5.1 km/h 8 km/h 75 % 0 mm
16:23 13.8 °C 9.5 °C 1004.6 hPa WNW 4.5 km/h 11.1 km/h 75 % 0 mm
16:29 13.8 °C 9.2 °C 1005 hPa SW 6.1 km/h 9.7 km/h 74 % 0 mm
16:34 13.8 °C 9.4 °C 1004.6 hPa WNW 8.7 km/h 14.8 km/h 75 % 0 mm
16:39 13.8 °C 9.2 °C 1004.6 hPa WNW 9.2 km/h 18.5 km/h 74 % 0 mm
16:44 13.7 °C 8.9 °C 1005 hPa NW 2.4 km/h 5.6 km/h 73 % 0 mm
16:49 13.8 °C 9.2 °C 1005 hPa WNW 4 km/h 11.1 km/h 74 % 0 mm
16:54 13.8 °C 9.2 °C 1005 hPa NW 3.7 km/h 7.4 km/h 74 % 0 mm
16:59 13.7 °C 8.9 °C 1005.3 hPa WNW 3.7 km/h 9.3 km/h 73 % 0 mm
17:04 13.8 °C 9 °C 1005.3 hPa West 2.3 km/h 7.4 km/h 73 % 0 mm
17:09 13.8 °C 9 °C 1005.3 hPa West 3.9 km/h 11.1 km/h 73 % 0 mm
17:14 13.7 °C 8.9 °C 1005 hPa North 3.2 km/h 7.4 km/h 73 % 0 mm
17:19 13.8 °C 9 °C 1005.3 hPa WNW 4.3 km/h 11.1 km/h 73 % 0 mm
17:24 13.7 °C 8.9 °C 1005.3 hPa NW 1 km/h 5.6 km/h 73 % 0 mm
17:29 13.7 °C 8.8 °C 1005.3 hPa West 1.1 km/h 3.7 km/h 72 % 0 mm
17:34 13.7 °C 8.8 °C 1005.3 hPa NW 0.6 km/h 3.2 km/h 72 % 0 mm
17:39 13.7 °C 8.5 °C 1005.6 hPa WNW 4.2 km/h 5.6 km/h 71 % 0 mm
17:44 13.7 °C 8.7 °C 1005.6 hPa WNW 1.4 km/h 5.6 km/h 72 % 0 mm
17:50 13.6 °C 8.7 °C 1006 hPa West 1.8 km/h 5.6 km/h 72 % 0 mm
17:55 13.6 °C 8.7 °C 1006 hPa WNW 2.7 km/h 7.4 km/h 72 % 0 mm
18:00 13.6 °C 8.6 °C 1006 hPa WSW 2.4 km/h 5.6 km/h 72 % 0 mm
18:05 13.6 °C 8.8 °C 1006 hPa SW 2.7 km/h 5.6 km/h 73 % 0 mm
18:10 13.6 °C 9 °C 1006.3 hPa WSW 1.4 km/h 5.6 km/h 74 % 0 mm
18:15 13.5 °C 8.9 °C 1006.3 hPa WSW 0.8 km/h 3.7 km/h 74 % 0 mm
18:20 13.4 °C 8.9 °C 1006.3 hPa Calm     74 % 0 mm
18:25 13.4 °C 9.1 °C 1006.3 hPa Calm     75 % 0 mm
18:30 13.3 °C 9 °C 1006.3 hPa Calm     75 % 0 mm
18:35 13.3 °C 8.9 °C 1006.3 hPa Calm     75 % 0 mm
18:40 13.2 °C 9.1 °C 1006.7 hPa Calm     76 % 0 mm
18:45 13.2 °C 9 °C 1006.7 hPa WSW 1 km/h 3.7 km/h 76 % 0 mm
18:50 13.1 °C 8.9 °C 1006.7 hPa WSW 1.6 km/h 5.6 km/h 76 % 0 mm
18:55 13 °C 8.9 °C 1006.7 hPa Calm     76 % 0 mm
19:00 12.9 °C 8.8 °C 1006.7 hPa Calm   1.6 km/h 76 % 0 mm
19:05 12.8 °C 8.9 °C 1007 hPa WSW 3.2 km/h 5.6 km/h 77 % 0 mm
19:10 12.7 °C 8.8 °C 1007.3 hPa SW 0.8 km/h 5.6 km/h 77 % 0 mm
19:16 12.6 °C 8.7 °C 1007.3 hPa West 2.9 km/h 6.4 km/h 77 % 0 mm
19:21 12.6 °C 8.4 °C 1007.3 hPa WNW 4.8 km/h 12.9 km/h 76 % 0 mm
19:26 12.6 °C 8.5 °C 1007.7 hPa WNW 11.3 km/h 24.1 km/h 76 % 0 mm
19:31 12.8 °C 8.1 °C 1007.7 hPa West 9.7 km/h 22.5 km/h 73 % 0 mm
19:36 12.9 °C 7.9 °C 1007.7 hPa WNW 8 km/h 16.1 km/h 72 % 0 mm
19:41 13 °C 7.4 °C 1008 hPa WNW 11.3 km/h 24.1 km/h 69 % 0 mm
19:46 13.1 °C 7.6 °C 1008 hPa West 3.2 km/h 27.4 km/h 69 % 0 mm
19:51 13.2 °C 7.2 °C 1008.4 hPa WNW 8.9 km/h 18.5 km/h 67 % 0 mm
19:56 13.2 °C 6.9 °C 1008.4 hPa WNW 9.7 km/h 25.7 km/h 66 % 0 mm
20:01 13.2 °C 7.2 °C 1008.7 hPa WNW 9.7 km/h 18.5 km/h 67 % 0 mm
20:06 13.2 °C 7 °C 1008.7 hPa NW 7.1 km/h 18.5 km/h 66 % 0 mm
20:11 13.2 °C 6.7 °C 1008.7 hPa West 8.2 km/h 11.1 km/h 65 % 0 mm
20:16 13.1 °C 6.9 °C 1008.7 hPa WSW 6 km/h 16.7 km/h 66 % 0 mm
20:21 13.1 °C 6.8 °C 1009 hPa WSW 10.1 km/h 18.5 km/h 66 % 0 mm
20:26 13 °C 6.8 °C 1009 hPa NW 8 km/h 19.3 km/h 66 % 0 mm
20:31 12.9 °C 6.7 °C 1009 hPa West 5.8 km/h 13 km/h 66 % 0 mm
20:36 12.9 °C 6.7 °C 1009 hPa SSW 7.1 km/h 20.4 km/h 66 % 0 mm
20:41 12.9 °C 6.7 °C 1009 hPa WNW 7.7 km/h 16.7 km/h 66 % 0 mm
20:46 12.8 °C 6.4 °C 1009.4 hPa West 7.7 km/h 22.2 km/h 65 % 0 mm
20:51 12.8 °C 6.4 °C 1009.4 hPa West 10.3 km/h 14.8 km/h 65 % 0 mm
20:56 12.8 °C 6.4 °C 1009.4 hPa West 10.8 km/h 20.4 km/h 65 % 0 mm
21:01 12.8 °C 6.4 °C 1009.4 hPa WNW 12.6 km/h 18.5 km/h 65 % 0 mm
21:06 12.8 °C 6.3 °C 1009.7 hPa NW 10.3 km/h 13 km/h 65 % 0 mm
21:12 12.8 °C 6.3 °C 1009.7 hPa West 6 km/h 20.4 km/h 65 % 0 mm
21:17 12.7 °C 5.8 °C 1009.7 hPa WSW 13.4 km/h 25.9 km/h 63 % 0 mm
21:22 12.7 °C 5.8 °C 1010 hPa WSW 10.5 km/h 20.4 km/h 63 % 0 mm
21:27 12.6 °C 5.7 °C 1010 hPa West 9.3 km/h 24.1 km/h 63 % 0 mm
21:32 12.6 °C 5.4 °C 1010.4 hPa NNW 11.1 km/h 27.8 km/h 62 % 0 mm
21:37 12.5 °C 5.7 °C 1010 hPa West 6.4 km/h 13 km/h 63 % 0 mm
21:42 12.5 °C 5.7 °C 1010 hPa NW 2.7 km/h 12.9 km/h 63 % 0 mm
21:47 12.4 °C 5.6 °C 1010.4 hPa SW 9 km/h 24.1 km/h 63 % 0 mm
21:52 12.3 °C 5.5 °C 1010.4 hPa WNW 4.5 km/h 13 km/h 63 % 0 mm
21:57 12.3 °C 5.7 °C 1010.4 hPa West 8 km/h 18.5 km/h 64 % 0 mm
22:02 12.2 °C 5.6 °C 1010.7 hPa WSW 7.2 km/h 14.8 km/h 64 % 0 mm
22:07 12.2 °C 5.3 °C 1010.7 hPa SW 12.1 km/h 25.9 km/h 63 % 0 mm
22:12 12.1 °C 5.3 °C 1010.7 hPa WSW 3.1 km/h 25.9 km/h 63 % 0 mm
22:17 12.1 °C 5.4 °C 1010.7 hPa West 11.4 km/h 20.4 km/h 64 % 0 mm
22:23 12 °C 5.4 °C 1010.7 hPa West 5.8 km/h 11.1 km/h 64 % 0 mm
22:28 11.9 °C 4.9 °C 1010.7 hPa West 14.8 km/h 27.8 km/h 62 % 0 mm
22:33 11.9 °C 4.8 °C 1011.1 hPa NW 7.7 km/h 27.8 km/h 62 % 0 mm
22:38 11.8 °C 4.8 °C 1011.1 hPa WNW 9.7 km/h 18.5 km/h 62 % 0 mm
22:43 11.8 °C 5.2 °C 1011.1 hPa WSW 8 km/h 16.1 km/h 64 % 0 mm
22:48 11.8 °C 5.2 °C 1011.1 hPa NW 9.3 km/h 18.5 km/h 64 % 0 mm
22:53 11.8 °C 4.9 °C 1011.4 hPa WSW 9.7 km/h 18.5 km/h 63 % 0 mm
22:58 11.8 °C 5.2 °C 1011.4 hPa West 6.3 km/h 13 km/h 64 % 0 mm
23:03 11.7 °C 5.1 °C 1011.1 hPa West 3.4 km/h 13 km/h 64 % 0 mm
23:08 11.6 °C 5 °C 1011.1 hPa WNW 6.4 km/h 11.1 km/h 64 % 0 mm
23:13 11.6 °C 5.2 °C 1011.1 hPa WNW 6.1 km/h 13 km/h 65 % 0 mm
23:18 11.5 °C 5.2 °C 1011.1 hPa SSW 5.1 km/h 8 km/h 65 % 0 mm
23:23 11.4 °C 5.3 °C 1011.1 hPa West 6.6 km/h 11.3 km/h 66 % 0 mm
23:28 11.4 °C 5.3 °C 1011.1 hPa West 5.5 km/h 11.3 km/h 66 % 0 mm
23:33 11.3 °C 5.2 °C 1011.1 hPa WNW 7.4 km/h 12.9 km/h 66 % 0 mm
23:38 11.2 °C 5.1 °C 1011.1 hPa West 6.6 km/h 18.5 km/h 66 % 0 mm
23:43 11.2 °C 5.1 °C 1011.1 hPa SSW 7.6 km/h 22.2 km/h 66 % 0 mm
23:49 11.2 °C 5.3 °C 1011.1 hPa WNW 9.3 km/h 16.7 km/h 67 % 0 mm
23:54 11.1 °C 5.2 °C 1011.1 hPa West 2.6 km/h 13 km/h 67 % 0 mm
23:59 11.1 °C 5.4 °C 1011.4 hPa SW 5.5 km/h 13 km/h 68 % 0 mm
Crab Meadow Weather
Compliments of Weather Underground - 3 mb

Script developed by  Jim McMurry - jmcmurry@mwt.net Adapted for the template by  Wim van der Kuil - Leuven-Template.eu

Weather Terms: Winter Storms - These are weather hazards associated with freezing or frozen precipitation (freezing rain, sleet, snow) or combined effects of winter precipitation and strong winds.